Wetterdaten: Donnerstag, 06.06.2013
Datum Zeit Temperatur Luftfeuchte Luftdruck Regen Wind Richtung Richtung Taupunkt Windchill Windben
06.06.2013 00:00 8,2 C 88 % 1020,4 hPa 0,0 l/m 1,6 km/h (1 Bft) NO 45 6,3 C 7,8 C 0,0 km/h (0 Bft)
06.06.2013 00:05 7,7 C 88 % 1020,4 hPa 0,0 l/m 0,3 km/h (0 Bft) NO 45 5,8 C 7,5 C 0,0 km/h (0 Bft)
06.06.2013 00:10 7,4 C 88 % 1020,4 hPa 0,0 l/m 0,0 km/h (0 Bft) NO 45 5,5 C 7,5 C 0,0 km/h (0 Bft)
06.06.2013 00:15 7,2 C 88 % 1020,4 hPa 0,0 l/m 0,0 km/h (0 Bft) NO 45 5,3 C 7,3 C 0,0 km/h (0 Bft)
06.06.2013 00:20 7,3 C 88 % 1020,2 hPa 0,0 l/m 0,0 km/h (0 Bft) O 90 5,4 C 7,2 C 0,0 km/h (0 Bft)
06.06.2013 00:25 7,7 C 88 % 1020,2 hPa 0,0 l/m 0,0 km/h (0 Bft) O-SO 112 5,8 C 7,3 C 0,0 km/h (0 Bft)
06.06.2013 00:30 7,3 C 88 % 1020,2 hPa 0,0 l/m 0,0 km/h (0 Bft) NW 315 5,4 C 7,3 C 0,0 km/h (0 Bft)
06.06.2013 00:35 7,2 C 88 % 1020,2 hPa 0,0 l/m 0,0 km/h (0 Bft) N 360 5,3 C 7,0 C 0,0 km/h (0 Bft)
06.06.2013 00:40 7,1 C 88 % 1020,2 hPa 0,0 l/m 0,0 km/h (0 Bft) NO 45 5,2 C 6,9 C 0,0 km/h (0 Bft)
06.06.2013 00:45 7,0 C 88 % 1020,2 hPa 0,0 l/m 0,0 km/h (0 Bft) W 270 5,2 C 6,9 C 0,0 km/h (0 Bft)
06.06.2013 00:50 6,8 C 89 % 1020,2 hPa 0,0 l/m 0,0 km/h (0 Bft) W 270 5,1 C 6,9 C 1,8 km/h (1 Bft)
06.06.2013 00:55 7,2 C 89 % 1020,2 hPa 0,0 l/m 0,0 km/h (0 Bft) N 360 5,5 C 6,8 C 0,0 km/h (0 Bft)
06.06.2013 01:00 6,9 C 89 % 1020,2 hPa 0,0 l/m 0,0 km/h (0 Bft) N-NW 337 5,2 C 6,8 C 0,0 km/h (0 Bft)
06.06.2013 01:05 6,8 C 89 % 1020,2 hPa 0,0 l/m 0,0 km/h (0 Bft) W-NW 292 5,1 C 6,8 C 0,0 km/h (0 Bft)
06.06.2013 01:10 6,7 C 89 % 1020,2 hPa 0,0 l/m 0,0 km/h (0 Bft) NO 45 5,0 C 6,6 C 0,0 km/h (0 Bft)
06.06.2013 01:15 6,6 C 89 % 1020,2 hPa 0,0 l/m 0,0 km/h (0 Bft) O-NO 67 4,9 C 6,5 C 0,0 km/h (0 Bft)
06.06.2013 01:20 6,6 C 89 % 1020,1 hPa 0,0 l/m 0,0 km/h (0 Bft) O 90 4,9 C 6,4 C 0,0 km/h (0 Bft)
06.06.2013 01:25 6,6 C 89 % 1020,1 hPa 0,0 l/m 0,0 km/h (0 Bft) N 360 4,9 C 6,3 C 0,0 km/h (0 Bft)
06.06.2013 01:30 6,5 C 89 % 1020,1 hPa 0,0 l/m 0,0 km/h (0 Bft) N 360 4,8 C 6,3 C 0,0 km/h (0 Bft)
06.06.2013 01:35 6,3 C 89 % 1020,1 hPa 0,0 l/m 0,0 km/h (0 Bft) N 360 4,6 C 6,2 C 0,0 km/h (0 Bft)
06.06.2013 01:40 6,1 C 89 % 1020,1 hPa 0,0 l/m 0,0 km/h (0 Bft) N-NW 337 4,4 C 6,1 C 0,0 km/h (0 Bft)
06.06.2013 01:45 6,6 C 90 % 1020,1 hPa 0,0 l/m 0,0 km/h (0 Bft) NO 45 5,1 C 6,0 C 0,0 km/h (0 Bft)
06.06.2013 01:50 6,6 C 90 % 1020,1 hPa 0,0 l/m 0,0 km/h (0 Bft) NO 45 5,1 C 6,1 C 0,0 km/h (0 Bft)
06.06.2013 01:55 6,5 C 90 % 1020,1 hPa 0,0 l/m 0,0 km/h (0 Bft) O-SO 112 5,0 C 6,0 C 0,0 km/h (0 Bft)
06.06.2013 02:00 6,5 C 90 % 1020,0 hPa 0,0 l/m 0,0 km/h (0 Bft) O-SO 112 5,0 C 6,2 C 0,0 km/h (0 Bft)
06.06.2013 02:05 6,2 C 90 % 1020,0 hPa 0,0 l/m 0,0 km/h (0 Bft) W-NW 292 4,7 C 6,2 C 0,0 km/h (0 Bft)
06.06.2013 02:10 6,0 C 90 % 1020,0 hPa 0,0 l/m 0,0 km/h (0 Bft) N-NO 22 4,5 C 6,0 C 0,0 km/h (0 Bft)
06.06.2013 02:15 6,0 C 90 % 1020,0 hPa 0,0 l/m 0,0 km/h (0 Bft) N-NO 22 4,5 C 5,9 C 0,0 km/h (0 Bft)
06.06.2013 02:20 6,2 C 90 % 1019,9 hPa 0,0 l/m 0,0 km/h (0 Bft) NO 45 4,7 C 5,8 C 0,0 km/h (0 Bft)
06.06.2013 02:25 6,2 C 90 % 1019,9 hPa 0,0 l/m 0,0 km/h (0 Bft) O 90 4,7 C 5,8 C 0,0 km/h (0 Bft)
06.06.2013 02:30 6,2 C 90 % 1019,9 hPa 0,0 l/m 0,0 km/h (0 Bft) O 90 4,7 C 5,9 C 0,0 km/h (0 Bft)
06.06.2013 02:35 5,8 C 91 % 1019,9 hPa 0,0 l/m 0,0 km/h (0 Bft) O 90 4,4 C 5,8 C 0,0 km/h (0 Bft)
06.06.2013 02:40 5,8 C 91 % 1019,9 hPa 0,0 l/m 0,0 km/h (0 Bft) O 90 4,4 C 5,7 C 0,0 km/h (0 Bft)
06.06.2013 02:45 6,2 C 90 % 1019,9 hPa 0,0 l/m 0,0 km/h (0 Bft) O 90 4,7 C 5,7 C 0,0 km/h (0 Bft)
06.06.2013 02:50 6,1 C 90 % 1019,9 hPa 0,0 l/m 0,0 km/h (0 Bft) O 90 4,6 C 5,8 C 0,0 km/h (0 Bft)
06.06.2013 02:55 5,7 C 91 % 1019,9 hPa 0,0 l/m 0,0 km/h (0 Bft) O 90 4,3 C 5,7 C 0,0 km/h (0 Bft)
06.06.2013 03:00 5,7 C 91 % 1019,8 hPa 0,0 l/m 0,0 km/h (0 Bft) SO 135 4,3 C 5,6 C 0,0 km/h (0 Bft)
06.06.2013 03:05 5,7 C 91 % 1019,8 hPa 0,0 l/m 0,0 km/h (0 Bft) O-SO 112 4,3 C 5,7 C 0,0 km/h (0 Bft)
06.06.2013 03:10 5,6 C 91 % 1019,8 hPa 0,0 l/m 0,0 km/h (0 Bft) N-NW 337 4,2 C 5,6 C 0,0 km/h (0 Bft)
06.06.2013 03:15 5,5 C 91 % 1019,8 hPa 0,0 l/m 0,0 km/h (0 Bft) N-NW 337 4,2 C 5,4 C 0,0 km/h (0 Bft)
06.06.2013 03:20 5,3 C 91 % 1019,9 hPa 0,0 l/m 0,0 km/h (0 Bft) N-NO 22 4,0 C 5,3 C 0,0 km/h (0 Bft)
06.06.2013 03:25 5,3 C 91 % 1019,9 hPa 0,0 l/m 0,0 km/h (0 Bft) W-NW 292 4,0 C 5,2 C 0,0 km/h (0 Bft)
06.06.2013 03:30 5,3 C 91 % 1019,9 hPa 0,0 l/m 0,0 km/h (0 Bft) NO 45 4,0 C 5,1 C 0,0 km/h (0 Bft)
06.06.2013 03:35 5,4 C 91 % 1019,9 hPa 0,0 l/m 0,0 km/h (0 Bft) W-NW 292 4,1 C 5,1 C 0,0 km/h (0 Bft)
06.06.2013 03:40 5,4 C 91 % 1019,6 hPa 0,0 l/m 0,0 km/h (0 Bft) N 360 4,1 C 5,1 C 0,0 km/h (0 Bft)
06.06.2013 03:45 5,4 C 92 % 1019,6 hPa 0,0 l/m 0,0 km/h (0 Bft) N-NO 22 4,2 C 5,1 C 0,0 km/h (0 Bft)
06.06.2013 03:50 5,3 C 92 % 1019,6 hPa 0,0 l/m 0,0 km/h (0 Bft) N-NO 22 4,1 C 5,1 C 0,0 km/h (0 Bft)
06.06.2013 03:55 5,3 C 92 % 1019,6 hPa 0,0 l/m 0,0 km/h (0 Bft) N-NW 337 4,1 C 5,1 C 0,0 km/h (0 Bft)
06.06.2013 04:00 5,3 C 92 % 1019,6 hPa 0,0 l/m 0,0 km/h (0 Bft) N-NO 22 4,1 C 5,1 C 0,0 km/h (0 Bft)
06.06.2013 04:05 5,3 C 92 % 1019,6 hPa 0,0 l/m 0,0 km/h (0 Bft) N-NO 22 4,1 C 5,1 C 0,0 km/h (0 Bft)
06.06.2013 04:10 5,3 C 92 % 1019,6 hPa 0,0 l/m 0,0 km/h (0 Bft) N-NO 22 4,1 C 5,1 C 0,0 km/h (0 Bft)
06.06.2013 04:15 5,1 C 92 % 1019,6 hPa 0,0 l/m 0,0 km/h (0 Bft) N-NO 22 3,9 C 5,0 C 0,0 km/h (0 Bft)
06.06.2013 04:20 5,1 C 92 % 1019,6 hPa 0,0 l/m 0,0 km/h (0 Bft) N 360 3,9 C 4,9 C 0,0 km/h (0 Bft)
06.06.2013 04:25 5,0 C 92 % 1019,6 hPa 0,0 l/m 0,0 km/h (0 Bft) N-NO 22 3,8 C 4,9 C 0,0 km/h (0 Bft)
06.06.2013 04:30 5,1 C 92 % 1019,6 hPa 0,0 l/m 0,0 km/h (0 Bft) N-NW 337 3,9 C 4,9 C 0,0 km/h (0 Bft)
06.06.2013 04:35 4,9 C 92 % 1019,6 hPa 0,0 l/m 0,0 km/h (0 Bft) N-NO 22 3,7 C 4,8 C 0,0 km/h (0 Bft)
06.06.2013 04:40 5,0 C 92 % 1019,8 hPa 0,0 l/m 0,0 km/h (0 Bft) N-NO 22 3,8 C 4,6 C 0,0 km/h (0 Bft)
06.06.2013 04:45 5,0 C 92 % 1019,8 hPa 0,0 l/m 0,0 km/h (0 Bft) NO 45 3,8 C 4,8 C 0,0 km/h (0 Bft)
06.06.2013 04:50 4,8 C 92 % 1019,8 hPa 0,0 l/m 0,0 km/h (0 Bft) NO 45 3,6 C 4,8 C 0,0 km/h (0 Bft)
06.06.2013 04:55 5,0 C 92 % 1019,8 hPa 0,0 l/m 0,0 km/h (0 Bft) N-NO 22 3,8 C 4,9 C 0,0 km/h (0 Bft)
06.06.2013 05:00 4,8 C 92 % 1019,7 hPa 0,0 l/m 0,0 km/h (0 Bft) N-NW 337 3,6 C 4,8 C 0,0 km/h (0 Bft)
06.06.2013 05:05 4,3 C 92 % 1019,7 hPa 0,0 l/m 0,0 km/h (0 Bft) N-NW 337 3,1 C 4,6 C 0,0 km/h (0 Bft)
06.06.2013 05:10 4,3 C 92 % 1019,7 hPa 0,0 l/m 0,0 km/h (0 Bft) N-NW 337 3,1 C 4,4 C 0,0 km/h (0 Bft)
06.06.2013 05:15 4,7 C 92 % 1019,7 hPa 0,0 l/m 0,0 km/h (0 Bft) N-NW 337 3,5 C 4,3 C 0,0 km/h (0 Bft)
06.06.2013 05:20 4,7 C 92 % 1019,6 hPa 0,0 l/m 0,0 km/h (0 Bft) N 360 3,5 C 4,4 C 0,0 km/h (0 Bft)
06.06.2013 05:25 4,7 C 92 % 1019,6 hPa 0,0 l/m 0,0 km/h (0 Bft) N-NO 22 3,5 C 4,3 C 0,0 km/h (0 Bft)
06.06.2013 05:30 4,6 C 92 % 1019,6 hPa 0,0 l/m 0,0 km/h (0 Bft) N-NW 337 3,4 C 4,4 C 0,0 km/h (0 Bft)
06.06.2013 05:35 4,8 C 92 % 1019,6 hPa 0,0 l/m 0,0 km/h (0 Bft) N 360 3,6 C 4,6 C 0,0 km/h (0 Bft)
06.06.2013 05:40 4,8 C 92 % 1020,1 hPa 0,0 l/m 0,0 km/h (0 Bft) N-NW 337 3,6 C 4,8 C 0,0 km/h (0 Bft)
06.06.2013 05:45 4,8 C 93 % 1020,1 hPa 0,0 l/m 0,0 km/h (0 Bft) N-NO 22 3,8 C 4,9 C 0,0 km/h (0 Bft)
06.06.2013 05:50 5,0 C 92 % 1020,1 hPa 0,0 l/m 0,0 km/h (0 Bft) N-NW 337 3,8 C 5,1 C 0,0 km/h (0 Bft)
06.06.2013 05:55 5,4 C 93 % 1020,1 hPa 0,0 l/m 0,0 km/h (0 Bft) NO 45 4,4 C 5,9 C 0,0 km/h (0 Bft)
06.06.2013 06:00 6,4 C 92 % 1020,5 hPa 0,0 l/m 0,0 km/h (0 Bft) O-NO 67 5,2 C 6,3 C 0,0 km/h (0 Bft)
06.06.2013 06:05 7,6 C 92 % 1020,5 hPa 0,0 l/m 0,0 km/h (0 Bft) W-NW 292 6,4 C 6,9 C 0,0 km/h (0 Bft)
06.06.2013 06:10 8,0 C 91 % 1020,5 hPa 0,0 l/m 0,0 km/h (0 Bft) NW 315 6,6 C 7,6 C 0,0 km/h (0 Bft)
06.06.2013 06:15 9,0 C 90 % 1020,5 hPa 0,0 l/m 0,0 km/h (0 Bft) N 360 7,4 C 8,5 C 0,0 km/h (0 Bft)
06.06.2013 06:20 9,6 C 90 % 1020,6 hPa 0,0 l/m 0,0 km/h (0 Bft) N 360 8,0 C 9,2 C 0,0 km/h (0 Bft)
06.06.2013 06:25 9,6 C 90 % 1020,6 hPa 0,0 l/m 0,0 km/h (0 Bft) NW 315 8,0 C 10,2 C 0,0 km/h (0 Bft)
06.06.2013 06:30 9,7 C 89 % 1020,6 hPa 0,0 l/m 0,0 km/h (0 Bft) N-NW 337 8,0 C 10,6 C 0,0 km/h (0 Bft)
06.06.2013 06:35 10,3 C 88 % 1020,6 hPa 0,0 l/m 0,0 km/h (0 Bft) N-NO 22 8,4 C 11,3 C 0,0 km/h (0 Bft)
06.06.2013 06:40 10,4 C 87 % 1020,6 hPa 0,0 l/m 0,0 km/h (0 Bft) N 360 8,3 C 11,9 C 0,0 km/h (0 Bft)
06.06.2013 06:45 11,1 C 86 % 1020,6 hPa 0,0 l/m 0,0 km/h (0 Bft) W-NW 292 8,8 C 12,8 C 0,0 km/h (0 Bft)
06.06.2013 06:50 11,5 C 85 % 1020,6 hPa 0,0 l/m 0,0 km/h (0 Bft) N-NO 22 9,1 C 13,2 C 0,0 km/h (0 Bft)
06.06.2013 06:55 12,8 C 84 % 1020,6 hPa 0,0 l/m 0,0 km/h (0 Bft) N-NW 337 10,2 C 14,4 C 0,0 km/h (0 Bft)
06.06.2013 07:00 12,5 C 78 % 1020,8 hPa 0,0 l/m 0,0 km/h (0 Bft) N 360 8,8 C 14,8 C 0,0 km/h (0 Bft)
06.06.2013 07:05 13,5 C 78 % 1020,8 hPa 0,0 l/m 0,0 km/h (0 Bft) O-NO 67 9,7 C 15,1 C 0,0 km/h (0 Bft)
06.06.2013 07:10 14,5 C 76 % 1020,8 hPa 0,0 l/m 0,0 km/h (0 Bft) NO 45 10,3 C 15,5 C 0,0 km/h (0 Bft)
06.06.2013 07:15 15,4 C 70 % 1020,8 hPa 0,0 l/m 0,0 km/h (0 Bft) N-NO 22 10,0 C 16,4 C 0,0 km/h (0 Bft)
06.06.2013 07:20 16,0 C 70 % 1020,8 hPa 0,0 l/m 0,0 km/h (0 Bft) NO 45 10,5 C 16,9 C 0,0 km/h (0 Bft)
06.06.2013 07:25 16,7 C 72 % 1020,8 hPa 0,0 l/m 0,0 km/h (0 Bft) O 90 11,6 C 17,7 C 0,0 km/h (0 Bft)
06.06.2013 07:30 17,0 C 69 % 1020,8 hPa 0,0 l/m 0,0 km/h (0 Bft) S 180 11,3 C 18,2 C 2,6 km/h (1 Bft)
06.06.2013 07:35 17,8 C 63 % 1020,8 hPa 0,0 l/m 1,4 km/h (1 Bft) S 180 10,7 C 17,7 C 2,4 km/h (1 Bft)
06.06.2013 07:40 18,3 C 60 % 1020,9 hPa 0,0 l/m 2,1 km/h (1 Bft) S-SO 157 10,4 C 17,9 C 4,3 km/h (1 Bft)
06.06.2013 07:45 19,3 C 59 % 1020,9 hPa 0,0 l/m 1,3 km/h (1 Bft) O 90 11,1 C 18,3 C 2,4 km/h (1 Bft)
06.06.2013 07:50 19,5 C 59 % 1020,9 hPa 0,0 l/m 1,0 km/h (0 Bft) O-NO 67 11,3 C 18,7 C 3,1 km/h (1 Bft)
06.06.2013 07:55 19,5 C 58 % 1020,9 hPa 0,0 l/m 1,0 km/h (0 Bft) S-SO 157 11,0 C 19,1 C 0,0 km/h (0 Bft)
06.06.2013 08:00 19,6 C 56 % 1021,4 hPa 0,0 l/m 1,0 km/h (0 Bft) S-SW 202 10,6 C 19,5 C 0,0 km/h (0 Bft)
06.06.2013 08:05 20,3 C 55 % 1021,4 hPa 0,0 l/m 0,8 km/h (0 Bft) W-SW 247 11,0 C 19,9 C 2,6 km/h (1 Bft)
06.06.2013 08:10 19,9 C 53 % 1021,4 hPa 0,0 l/m 1,4 km/h (1 Bft) S 180 10,0 C 19,9 C 3,1 km/h (1 Bft)
06.06.2013 08:15 20,1 C 53 % 1021,4 hPa 0,0 l/m 1,3 km/h (1 Bft) W-SW 247 10,2 C 20,5 C 0,0 km/h (0 Bft)
06.06.2013 08:20 20,8 C 54 % 1021,4 hPa 0,0 l/m 0,8 km/h (0 Bft) S 180 11,1 C 21,1 C 4,7 km/h (1 Bft)
06.06.2013 08:25 21,9 C 54 % 1021,4 hPa 0,0 l/m 1,0 km/h (0 Bft) S 180 12,2 C 21,3 C 0,0 km/h (0 Bft)
06.06.2013 08:30 21,0 C 52 % 1021,4 hPa 0,0 l/m 1,0 km/h (0 Bft) W-NW 292 10,8 C 21,4 C 0,0 km/h (0 Bft)
06.06.2013 08:35 21,9 C 51 % 1021,4 hPa 0,0 l/m 0,5 km/h (0 Bft) W-SW 247 11,3 C 22,0 C 0,0 km/h (0 Bft)
06.06.2013 08:40 21,5 C 51 % 1021,6 hPa 0,0 l/m 0,3 km/h (0 Bft) W 270 10,9 C 22,3 C 0,0 km/h (0 Bft)
06.06.2013 08:45 21,9 C 50 % 1021,6 hPa 0,0 l/m 0,5 km/h (0 Bft) S-SW 202 11,0 C 23,0 C 2,1 km/h (1 Bft)
06.06.2013 08:50 22,4 C 49 % 1021,6 hPa 0,0 l/m 1,3 km/h (1 Bft) W-NW 292 11,2 C 22,7 C 0,0 km/h (0 Bft)
06.06.2013 08:55 22,5 C 46 % 1021,6 hPa 0,0 l/m 2,4 km/h (1 Bft) W-NW 292 10,3 C 22,5 C 4,0 km/h (1 Bft)
06.06.2013 09:00 22,2 C 47 % 1021,9 hPa 0,0 l/m 2,1 km/h (1 Bft) W-NW 292 10,3 C 22,3 C 6,6 km/h (2 Bft)
06.06.2013 09:05 21,4 C 48 % 1021,9 hPa 0,0 l/m 1,9 km/h (1 Bft) N-NO 22 9,9 C 22,3 C 0,0 km/h (0 Bft)
06.06.2013 09:10 20,9 C 51 % 1021,9 hPa 0,0 l/m 1,1 km/h (1 Bft) SO 135 10,4 C 22,6 C 7,6 km/h (2 Bft)
06.06.2013 09:15 20,4 C 49 % 1021,9 hPa 0,0 l/m 1,3 km/h (1 Bft) W-NW 292 9,3 C 22,6 C 3,2 km/h (1 Bft)
06.06.2013 09:20 20,9 C 49 % 1022,1 hPa 0,0 l/m 2,1 km/h (1 Bft) W 270 9,8 C 22,1 C 3,1 km/h (1 Bft)
06.06.2013 09:25 20,6 C 48 % 1022,1 hPa 0,0 l/m 2,3 km/h (1 Bft) N-NW 337 9,2 C 22,4 C 5,5 km/h (1 Bft)
06.06.2013 09:30 20,7 C 52 % 1022,1 hPa 0,0 l/m 1,8 km/h (1 Bft) N-NO 22 10,5 C 21,6 C 0,0 km/h (0 Bft)
06.06.2013 09:35 21,8 C 48 % 1022,1 hPa 0,0 l/m 1,4 km/h (1 Bft) NO 45 10,3 C 22,4 C 0,0 km/h (0 Bft)
06.06.2013 09:40 21,5 C 47 % 1022,3 hPa 0,0 l/m 1,9 km/h (1 Bft) N 360 9,7 C 22,9 C 5,5 km/h (1 Bft)
06.06.2013 09:45 22,2 C 48 % 1022,3 hPa 0,0 l/m 2,3 km/h (1 Bft) O-NO 67 10,7 C 22,8 C 0,0 km/h (0 Bft)
06.06.2013 09:50 22,4 C 48 % 1022,3 hPa 0,0 l/m 1,9 km/h (1 Bft) NO 45 10,8 C 23,5 C 3,5 km/h (1 Bft)
06.06.2013 09:55 21,4 C 45 % 1022,3 hPa 0,0 l/m 2,3 km/h (1 Bft) O 90 9,0 C 23,2 C 3,2 km/h (1 Bft)
06.06.2013 10:00 21,6 C 47 % 1022,3 hPa 0,0 l/m 2,7 km/h (1 Bft) N 360 9,8 C 23,2 C 4,8 km/h (1 Bft)
06.06.2013 10:05 21,7 C 46 % 1022,3 hPa 0,0 l/m 2,7 km/h (1 Bft) W-NW 292 9,6 C 22,8 C 1,9 km/h (1 Bft)
06.06.2013 10:10 20,9 C 45 % 1022,3 hPa 0,0 l/m 3,1 km/h (1 Bft) O-NO 67 8,5 C 23,0 C 4,3 km/h (1 Bft)
06.06.2013 10:15 21,7 C 46 % 1022,3 hPa 0,0 l/m 2,9 km/h (1 Bft) N 360 9,6 C 23,0 C 6,4 km/h (2 Bft)
06.06.2013 10:20 20,7 C 44 % 1022,4 hPa 0,0 l/m 3,2 km/h (1 Bft) NW 315 8,0 C 23,0 C 3,7 km/h (1 Bft)
06.06.2013 10:25 21,5 C 46 % 1022,4 hPa 0,0 l/m 3,4 km/h (1 Bft) N 360 9,4 C 22,8 C 4,8 km/h (1 Bft)
06.06.2013 10:30 22,2 C 44 % 1022,4 hPa 0,0 l/m 2,9 km/h (1 Bft) N-NW 337 9,4 C 23,1 C 8,0 km/h (2 Bft)
06.06.2013 10:35 21,5 C 42 % 1022,4 hPa 0,0 l/m 2,4 km/h (1 Bft) S-SW 202 8,0 C 23,5 C 2,3 km/h (1 Bft)
06.06.2013 10:40 21,7 C 44 % 1022,6 hPa 0,0 l/m 3,7 km/h (1 Bft) W-SW 247 8,9 C 23,3 C 9,8 km/h (2 Bft)
06.06.2013 10:45 21,4 C 46 % 1022,6 hPa 0,0 l/m 3,9 km/h (1 Bft) N-NW 337 9,3 C 23,0 C 3,1 km/h (1 Bft)
06.06.2013 10:50 22,2 C 44 % 1022,6 hPa 0,0 l/m 3,5 km/h (1 Bft) N 360 9,4 C 23,1 C 9,8 km/h (2 Bft)
06.06.2013 10:55 21,6 C 45 % 1022,6 hPa 0,0 l/m 4,2 km/h (1 Bft) W-NW 292 9,2 C 22,7 C 2,6 km/h (1 Bft)
06.06.2013 11:00 21,7 C 44 % 1022,9 hPa 0,0 l/m 5,1 km/h (1 Bft) W-NW 292 8,9 C 22,6 C 3,5 km/h (1 Bft)
06.06.2013 11:05 21,8 C 43 % 1022,9 hPa 0,0 l/m 4,0 km/h (1 Bft) W-SW 247 8,7 C 22,5 C 1,6 km/h (1 Bft)
06.06.2013 11:10 21,5 C 42 % 1022,9 hPa 0,0 l/m 3,7 km/h (1 Bft) O-NO 67 8,0 C 23,0 C 8,0 km/h (2 Bft)
06.06.2013 11:15 21,9 C 44 % 1022,9 hPa 0,0 l/m 4,2 km/h (1 Bft) W 270 9,1 C 22,8 C 4,2 km/h (1 Bft)
06.06.2013 11:20 22,4 C 43 % 1023,0 hPa 0,0 l/m 5,1 km/h (1 Bft) W-NW 292 9,2 C 22,7 C 6,4 km/h (2 Bft)
06.06.2013 11:25 22,1 C 44 % 1023,0 hPa 0,0 l/m 4,2 km/h (1 Bft) N-NW 337 9,3 C 22,6 C 2,7 km/h (1 Bft)
06.06.2013 11:30 22,2 C 42 % 1023,0 hPa 0,0 l/m 3,9 km/h (1 Bft) NW 315 8,7 C 23,0 C 5,6 km/h (1 Bft)
06.06.2013 11:35 21,6 C 43 % 1023,0 hPa 0,0 l/m 3,5 km/h (1 Bft) N 360 8,5 C 23,2 C 3,4 km/h (1 Bft)
06.06.2013 11:40 22,3 C 44 % 1023,2 hPa 0,0 l/m 3,7 km/h (1 Bft) W 270 9,5 C 23,2 C 5,5 km/h (1 Bft)
06.06.2013 11:45 22,8 C 43 % 1023,2 hPa 0,0 l/m 4,3 km/h (1 Bft) W-NW 292 9,6 C 23,4 C 8,7 km/h (2 Bft)
06.06.2013 11:50 23,4 C 42 % 1023,2 hPa 0,0 l/m 4,2 km/h (1 Bft) NO 45 9,7 C 23,4 C 2,6 km/h (1 Bft)
06.06.2013 11:55 23,0 C 43 % 1023,2 hPa 0,0 l/m 3,9 km/h (1 Bft) N-NW 337 9,7 C 24,4 C 5,0 km/h (1 Bft)
06.06.2013 12:00 22,4 C 45 % 1023,2 hPa 0,0 l/m 3,4 km/h (1 Bft) W-SW 247 9,9 C 24,7 C 3,7 km/h (1 Bft)
06.06.2013 12:05 21,4 C 47 % 1023,2 hPa 0,0 l/m 3,7 km/h (1 Bft) N-NW 337 9,6 C 23,4 C 3,7 km/h (1 Bft)
06.06.2013 12:10 22,1 C 45 % 1023,2 hPa 0,0 l/m 4,3 km/h (1 Bft) W-NW 292 9,6 C 23,4 C 6,3 km/h (2 Bft)
06.06.2013 12:15 21,5 C 45 % 1023,2 hPa 0,0 l/m 5,3 km/h (1 Bft) N 360 9,1 C 23,4 C 8,0 km/h (2 Bft)
06.06.2013 12:20 21,7 C 47 % 1023,4 hPa 0,0 l/m 5,0 km/h (1 Bft) N-NW 337 9,9 C 22,7 C 6,4 km/h (2 Bft)
06.06.2013 12:25 20,4 C 48 % 1023,4 hPa 0,0 l/m 4,7 km/h (1 Bft) W-NW 292 9,0 C 21,9 C 4,2 km/h (1 Bft)
06.06.2013 12:30 22,9 C 46 % 1023,4 hPa 0,0 l/m 4,5 km/h (1 Bft) N 360 10,7 C 22,5 C 11,7 km/h (2 Bft)
06.06.2013 12:35 22,9 C 43 % 1023,4 hPa 0,0 l/m 4,3 km/h (1 Bft) W-NW 292 9,6 C 23,7 C 10,0 km/h (2 Bft)
06.06.2013 12:40 22,0 C 44 % 1023,3 hPa 0,0 l/m 6,0 km/h (2 Bft) W 270 9,2 C 23,4 C 6,8 km/h (2 Bft)
06.06.2013 12:45 21,9 C 44 % 1023,3 hPa 0,0 l/m 5,6 km/h (1 Bft) W-NW 292 9,1 C 23,1 C 6,9 km/h (2 Bft)
06.06.2013 12:50 22,8 C 44 % 1023,3 hPa 0,0 l/m 5,0 km/h (1 Bft) NW 315 9,9 C 23,4 C 9,0 km/h (2 Bft)
06.06.2013 12:55 22,4 C 41 % 1023,3 hPa 0,0 l/m 5,8 km/h (2 Bft) W 270 8,5 C 23,6 C 7,6 km/h (2 Bft)
06.06.2013 13:00 21,9 C 41 % 1023,6 hPa 0,0 l/m 6,0 km/h (2 Bft) W-SW 247 8,0 C 23,4 C 2,4 km/h (1 Bft)
06.06.2013 13:05 20,5 C 46 % 1023,6 hPa 0,0 l/m 3,2 km/h (1 Bft) SO 135 8,5 C 22,8 C 2,3 km/h (1 Bft)
06.06.2013 13:10 21,7 C 46 % 1023,6 hPa 0,0 l/m 2,3 km/h (1 Bft) N-NW 337 9,6 C 23,2 C 4,3 km/h (1 Bft)
06.06.2013 13:15 22,1 C 44 % 1023,6 hPa 0,0 l/m 3,5 km/h (1 Bft) W-NW 292 9,3 C 23,6 C 4,5 km/h (1 Bft)
06.06.2013 13:20 22,5 C 41 % 1023,3 hPa 0,0 l/m 4,0 km/h (1 Bft) NW 315 8,6 C 24,0 C 7,6 km/h (2 Bft)
06.06.2013 13:25 22,6 C 42 % 1023,3 hPa 0,0 l/m 4,7 km/h (1 Bft) N 360 9,0 C 24,5 C 5,3 km/h (1 Bft)
06.06.2013 13:30 23,0 C 39 % 1023,3 hPa 0,0 l/m 5,1 km/h (1 Bft) W-NW 292 8,3 C 24,6 C 6,4 km/h (2 Bft)
06.06.2013 13:35 23,7 C 38 % 1023,3 hPa 0,0 l/m 4,7 km/h (1 Bft) N-NW 337 8,5 C 25,4 C 5,6 km/h (1 Bft)
06.06.2013 13:40 23,2 C 40 % 1023,6 hPa 0,0 l/m 4,7 km/h (1 Bft) NO 45 8,8 C 25,6 C 4,3 km/h (1 Bft)
06.06.2013 13:45 23,6 C 40 % 1023,6 hPa 0,0 l/m 4,5 km/h (1 Bft) W-NW 292 9,2 C 26,0 C 3,5 km/h (1 Bft)
06.06.2013 13:50 24,2 C 38 % 1023,6 hPa 0,0 l/m 4,5 km/h (1 Bft) W-SW 247 9,0 C 26,3 C 6,9 km/h (2 Bft)
06.06.2013 13:55 22,0 C 38 % 1023,6 hPa 0,0 l/m 4,5 km/h (1 Bft) W-NW 292 7,0 C 25,2 C 5,0 km/h (1 Bft)
06.06.2013 14:00 21,0 C 42 % 1023,6 hPa 0,0 l/m 4,5 km/h (1 Bft) W 270 7,6 C 24,1 C 7,6 km/h (2 Bft)
06.06.2013 14:05 22,0 C 42 % 1023,6 hPa 0,0 l/m 4,5 km/h (1 Bft) N-NW 337 8,5 C 23,1 C 5,8 km/h (2 Bft)
06.06.2013 14:10 22,6 C 39 % 1023,6 hPa 0,0 l/m 5,5 km/h (1 Bft) S-SW 202 7,9 C 24,1 C 8,2 km/h (2 Bft)
06.06.2013 14:15 22,9 C 37 % 1023,6 hPa 0,0 l/m 6,0 km/h (2 Bft) N-NW 337 7,4 C 24,9 C 7,9 km/h (2 Bft)
06.06.2013 14:20 22,5 C 41 % 1023,4 hPa 0,0 l/m 5,3 km/h (1 Bft) W-SW 247 8,6 C 25,2 C 3,1 km/h (1 Bft)
06.06.2013 14:25 24,4 C 37 % 1023,4 hPa 0,0 l/m 3,5 km/h (1 Bft) W-NW 292 8,8 C 25,7 C 3,7 km/h (1 Bft)
06.06.2013 14:30 22,3 C 37 % 1023,4 hPa 0,0 l/m 3,2 km/h (1 Bft) N-NW 337 6,9 C 26,5 C 8,9 km/h (2 Bft)
06.06.2013 14:35 21,3 C 41 % 1023,4 hPa 0,0 l/m 4,7 km/h (1 Bft) W-NW 292 7,5 C 24,9 C 7,4 km/h (2 Bft)
06.06.2013 14:40 21,1 C 42 % 1023,4 hPa 0,0 l/m 4,8 km/h (1 Bft) W-NW 292 7,7 C 23,6 C 3,4 km/h (1 Bft)
06.06.2013 14:45 21,2 C 43 % 1023,4 hPa 0,0 l/m 3,7 km/h (1 Bft) O 90 8,1 C 23,4 C 2,9 km/h (1 Bft)
06.06.2013 14:50 22,4 C 42 % 1023,4 hPa 0,0 l/m 3,2 km/h (1 Bft) N-NW 337 8,9 C 23,9 C 5,5 km/h (1 Bft)
06.06.2013 14:55 23,9 C 38 % 1023,4 hPa 0,0 l/m 4,5 km/h (1 Bft) N-NW 337 8,7 C 25,1 C 4,0 km/h (1 Bft)
06.06.2013 15:00 22,7 C 38 % 1023,3 hPa 0,0 l/m 5,3 km/h (1 Bft) W 270 7,6 C 25,3 C 2,3 km/h (1 Bft)
06.06.2013 15:05 21,2 C 42 % 1023,3 hPa 0,0 l/m 4,0 km/h (1 Bft) S-SW 202 7,8 C 24,2 C 5,8 km/h (2 Bft)
06.06.2013 15:10 21,2 C 43 % 1023,3 hPa 0,0 l/m 3,7 km/h (1 Bft) S-SW 202 8,1 C 23,5 C 3,7 km/h (1 Bft)
06.06.2013 15:15 20,6 C 44 % 1023,3 hPa 0,0 l/m 4,0 km/h (1 Bft) N-NO 22 7,9 C 22,7 C 4,0 km/h (1 Bft)
06.06.2013 15:20 20,5 C 45 % 1023,1 hPa 0,0 l/m 3,5 km/h (1 Bft) W-NW 292 8,2 C 22,5 C 4,0 km/h (1 Bft)
06.06.2013 15:25 20,6 C 45 % 1023,1 hPa 0,0 l/m 2,7 km/h (1 Bft) N-NW 337 8,2 C 22,5 C 3,4 km/h (1 Bft)
06.06.2013 15:30 21,2 C 45 % 1023,1 hPa 0,0 l/m 1,9 km/h (1 Bft) NO 45 8,8 C 22,6 C 0,0 km/h (0 Bft)
06.06.2013 15:35 22,3 C 41 % 1023,1 hPa 0,0 l/m 1,3 km/h (1 Bft) S 180 8,4 C 23,9 C 0,0 km/h (0 Bft)
06.06.2013 15:40 22,3 C 41 % 1022,7 hPa 0,0 l/m 1,6 km/h (1 Bft) S 180 8,4 C 25,3 C 2,6 km/h (1 Bft)
06.06.2013 15:45 21,9 C 41 % 1022,7 hPa 0,0 l/m 2,9 km/h (1 Bft) S 180 8,0 C 25,7 C 3,7 km/h (1 Bft)
06.06.2013 15:50 20,9 C 41 % 1022,7 hPa 0,0 l/m 4,3 km/h (1 Bft) W 270 7,2 C 24,9 C 6,4 km/h (2 Bft)
06.06.2013 15:55 20,1 C 43 % 1022,7 hPa 0,0 l/m 3,9 km/h (1 Bft) N-NW 337 7,1 C 23,2 C 1,9 km/h (1 Bft)
06.06.2013 16:00 20,8 C 44 % 1022,8 hPa 0,0 l/m 3,1 km/h (1 Bft) W 270 8,1 C 22,5 C 13,4 km/h (3 Bft)
06.06.2013 16:05 21,8 C 39 % 1022,8 hPa 0,0 l/m 3,1 km/h (1 Bft) NW 315 7,2 C 23,9 C 6,8 km/h (2 Bft)
06.06.2013 16:10 21,4 C 39 % 1022,8 hPa 0,0 l/m 3,9 km/h (1 Bft) SW 225 6,9 C 24,5 C 3,7 km/h (1 Bft)
06.06.2013 16:15 22,3 C 41 % 1022,8 hPa 0,0 l/m 4,0 km/h (1 Bft) N-NW 337 8,4 C 24,5 C 7,1 km/h (2 Bft)
06.06.2013 16:20 22,6 C 38 % 1022,7 hPa 0,0 l/m 3,7 km/h (1 Bft) W-SW 247 7,6 C 25,6 C 3,4 km/h (1 Bft)
06.06.2013 16:25 22,7 C 41 % 1022,7 hPa 0,0 l/m 3,4 km/h (1 Bft) W-NW 292 8,8 C 26,9 C 2,6 km/h (1 Bft)
06.06.2013 16:30 22,4 C 39 % 1022,7 hPa 0,0 l/m 4,5 km/h (1 Bft) N-NW 337 7,8 C 26,9 C 10,5 km/h (2 Bft)
06.06.2013 16:35 21,4 C 42 % 1022,7 hPa 0,0 l/m 5,0 km/h (1 Bft) W 270 8,0 C 25,9 C 3,7 km/h (1 Bft)
06.06.2013 16:40 20,8 C 41 % 1022,9 hPa 0,0 l/m 4,5 km/h (1 Bft) NW 315 7,1 C 24,6 C 4,7 km/h (1 Bft)
06.06.2013 16:45 20,7 C 42 % 1022,9 hPa 0,0 l/m 3,7 km/h (1 Bft) N-NW 337 7,3 C 23,0 C 3,7 km/h (1 Bft)
06.06.2013 16:50 20,5 C 43 % 1022,9 hPa 0,0 l/m 3,2 km/h (1 Bft) N-NW 337 7,5 C 22,7 C 5,8 km/h (2 Bft)
06.06.2013 16:55 20,6 C 44 % 1022,9 hPa 0,0 l/m 2,4 km/h (1 Bft) N 360 7,9 C 22,6 C 3,2 km/h (1 Bft)
06.06.2013 17:00 20,8 C 43 % 1022,7 hPa 0,0 l/m 3,1 km/h (1 Bft) N 360 7,8 C 22,6 C 2,6 km/h (1 Bft)
06.06.2013 17:05 20,9 C 43 % 1022,7 hPa 0,0 l/m 3,7 km/h (1 Bft) W 270 7,8 C 22,9 C 6,3 km/h (2 Bft)
06.06.2013 17:10 21,1 C 42 % 1022,7 hPa 0,0 l/m 3,9 km/h (1 Bft) N-NO 22 7,7 C 23,2 C 2,7 km/h (1 Bft)
06.06.2013 17:15 21,4 C 44 % 1022,7 hPa 0,0 l/m 5,0 km/h (1 Bft) NO 45 8,6 C 24,6 C 5,8 km/h (2 Bft)
06.06.2013 17:20 21,2 C 43 % 1022,4 hPa 0,0 l/m 4,7 km/h (1 Bft) W-NW 292 8,1 C 25,5 C 3,7 km/h (1 Bft)
06.06.2013 17:25 21,1 C 41 % 1022,4 hPa 0,0 l/m 4,5 km/h (1 Bft) N-NW 337 7,3 C 26,5 C 9,7 km/h (2 Bft)
06.06.2013 17:30 21,0 C 42 % 1022,4 hPa 0,0 l/m 4,3 km/h (1 Bft) SW 225 7,6 C 26,9 C 6,6 km/h (2 Bft)
06.06.2013 17:35 20,3 C 44 % 1022,4 hPa 0,0 l/m 4,2 km/h (1 Bft) N 360 7,6 C 25,7 C 3,7 km/h (1 Bft)
06.06.2013 17:40 19,7 C 46 % 1022,4 hPa 0,0 l/m 3,2 km/h (1 Bft) W-NW 292 7,8 C 24,4 C 3,9 km/h (1 Bft)
06.06.2013 17:45 19,3 C 46 % 1022,4 hPa 0,0 l/m 2,4 km/h (1 Bft) N-NW 337 7,4 C 22,7 C 0,0 km/h (0 Bft)
06.06.2013 17:50 19,1 C 47 % 1022,4 hPa 0,0 l/m 2,6 km/h (1 Bft) W-NW 292 7,5 C 21,9 C 1,8 km/h (1 Bft)
06.06.2013 17:55 19,3 C 47 % 1022,4 hPa 0,0 l/m 3,1 km/h (1 Bft) S-SW 202 7,7 C 21,3 C 5,0 km/h (1 Bft)
06.06.2013 18:00 20,0 C 47 % 1022,0 hPa 0,0 l/m 3,2 km/h (1 Bft) S-SW 202 8,3 C 22,4 C 3,9 km/h (1 Bft)
06.06.2013 18:05 20,1 C 45 % 1022,0 hPa 0,0 l/m 3,7 km/h (1 Bft) N-NW 337 7,8 C 24,0 C 7,4 km/h (2 Bft)
06.06.2013 18:10 20,3 C 46 % 1022,0 hPa 0,0 l/m 4,0 km/h (1 Bft) W-SW 247 8,3 C 24,0 C 0,0 km/h (0 Bft)
06.06.2013 18:15 20,8 C 44 % 1022,0 hPa 0,0 l/m 5,1 km/h (1 Bft) W 270 8,1 C 24,7 C 8,5 km/h (2 Bft)
06.06.2013 18:20 20,9 C 44 % 1021,9 hPa 0,0 l/m 5,8 km/h (2 Bft) W-SW 247 8,2 C 24,8 C 10,0 km/h (2 Bft)
06.06.2013 18:25 20,7 C 45 % 1021,9 hPa 0,0 l/m 5,8 km/h (2 Bft) N-NO 22 8,3 C 25,0 C 4,5 km/h (1 Bft)
06.06.2013 18:30 20,5 C 44 % 1021,9 hPa 0,0 l/m 4,5 km/h (1 Bft) W-NW 292 7,8 C 25,6 C 8,2 km/h (2 Bft)
06.06.2013 18:35 20,3 C 46 % 1021,9 hPa 0,0 l/m 3,7 km/h (1 Bft) N 360 8,3 C 25,1 C 6,4 km/h (2 Bft)
06.06.2013 18:40 20,4 C 47 % 1021,8 hPa 0,0 l/m 3,7 km/h (1 Bft) NW 315 8,7 C 25,6 C 6,8 km/h (2 Bft)
06.06.2013 18:45 20,4 C 46 % 1021,8 hPa 0,0 l/m 3,5 km/h (1 Bft) W-NW 292 8,4 C 26,0 C 4,2 km/h (1 Bft)
06.06.2013 18:50 20,3 C 45 % 1021,8 hPa 0,0 l/m 5,0 km/h (1 Bft) W-NW 292 8,0 C 25,6 C 5,1 km/h (1 Bft)
06.06.2013 18:55 19,7 C 48 % 1021,8 hPa 0,0 l/m 5,0 km/h (1 Bft) N-NW 337 8,4 C 24,4 C 5,1 km/h (1 Bft)
06.06.2013 19:00 19,6 C 48 % 1021,9 hPa 0,0 l/m 4,5 km/h (1 Bft) N-NW 337 8,3 C 24,3 C 4,3 km/h (1 Bft)
06.06.2013 19:05 19,5 C 49 % 1021,9 hPa 0,0 l/m 3,9 km/h (1 Bft) N 360 8,5 C 24,6 C 3,4 km/h (1 Bft)
06.06.2013 19:10 19,5 C 48 % 1021,9 hPa 0,0 l/m 3,1 km/h (1 Bft) NO 45 8,2 C 24,8 C 3,2 km/h (1 Bft)
06.06.2013 19:15 19,4 C 50 % 1021,9 hPa 0,0 l/m 2,3 km/h (1 Bft) N 360 8,7 C 25,1 C 3,2 km/h (1 Bft)
06.06.2013 19:20 19,4 C 49 % 1021,8 hPa 0,0 l/m 2,4 km/h (1 Bft) N-NO 22 8,4 C 25,0 C 2,3 km/h (1 Bft)
06.06.2013 19:25 19,5 C 49 % 1021,8 hPa 0,0 l/m 3,1 km/h (1 Bft) W 270 8,5 C 24,8 C 3,4 km/h (1 Bft)
06.06.2013 19:30 19,4 C 50 % 1021,8 hPa 0,0 l/m 2,6 km/h (1 Bft) N 360 8,7 C 24,8 C 6,4 km/h (2 Bft)
06.06.2013 19:35 19,4 C 49 % 1021,8 hPa 0,0 l/m 3,4 km/h (1 Bft) N 360 8,4 C 24,4 C 4,3 km/h (1 Bft)
06.06.2013 19:40 19,3 C 50 % 1021,8 hPa 0,0 l/m 3,4 km/h (1 Bft) NO 45 8,6 C 24,1 C 2,7 km/h (1 Bft)
06.06.2013 19:45 19,2 C 50 % 1021,8 hPa 0,0 l/m 2,9 km/h (1 Bft) N-NW 337 8,5 C 23,9 C 6,4 km/h (2 Bft)
06.06.2013 19:50 19,1 C 49 % 1021,8 hPa 0,0 l/m 3,7 km/h (1 Bft) W-NW 292 8,1 C 23,5 C 7,2 km/h (2 Bft)
06.06.2013 19:55 18,8 C 49 % 1021,8 hPa 0,0 l/m 4,5 km/h (1 Bft) N 360 7,9 C 22,6 C 4,8 km/h (1 Bft)
06.06.2013 20:00 18,8 C 50 % 1021,9 hPa 0,0 l/m 4,7 km/h (1 Bft) N-NW 337 8,2 C 22,5 C 7,7 km/h (2 Bft)
06.06.2013 20:05 18,5 C 52 % 1021,9 hPa 0,0 l/m 3,2 km/h (1 Bft) N 360 8,5 C 22,2 C 3,4 km/h (1 Bft)
06.06.2013 20:10 18,4 C 52 % 1021,9 hPa 0,0 l/m 2,3 km/h (1 Bft) N 360 8,4 C 22,1 C 3,2 km/h (1 Bft)
06.06.2013 20:15 18,3 C 52 % 1021,9 hPa 0,0 l/m 2,1 km/h (1 Bft) N 360 8,3 C 21,9 C 3,2 km/h (1 Bft)
06.06.2013 20:20 17,9 C 54 % 1021,8 hPa 0,0 l/m 2,3 km/h (1 Bft) NW 315 8,5 C 21,6 C 2,9 km/h (1 Bft)
06.06.2013 20:25 17,7 C 55 % 1021,8 hPa 0,0 l/m 1,8 km/h (1 Bft) S 180 8,5 C 21,2 C 1,8 km/h (1 Bft)
06.06.2013 20:30 17,2 C 55 % 1021,8 hPa 0,0 l/m 1,3 km/h (1 Bft) N-NO 22 8,1 C 20,8 C 2,4 km/h (1 Bft)
06.06.2013 20:35 16,8 C 56 % 1021,8 hPa 0,0 l/m 0,8 km/h (0 Bft) NO 45 8,0 C 20,3 C 2,3 km/h (1 Bft)
06.06.2013 20:40 16,5 C 57 % 1021,8 hPa 0,0 l/m 1,1 km/h (1 Bft) NO 45 8,0 C 19,9 C 2,4 km/h (1 Bft)
06.06.2013 20:45 16,3 C 57 % 1021,8 hPa 0,0 l/m 1,6 km/h (1 Bft) O 90 7,8 C 18,9 C 2,9 km/h (1 Bft)
06.06.2013 20:50 16,1 C 58 % 1021,8 hPa 0,0 l/m 1,9 km/h (1 Bft) O-NO 67 7,8 C 18,1 C 2,9 km/h (1 Bft)
06.06.2013 20:55 15,8 C 59 % 1021,8 hPa 0,0 l/m 1,9 km/h (1 Bft) O-NO 67 7,8 C 16,8 C 2,6 km/h (1 Bft)
06.06.2013 21:00 15,5 C 61 % 1021,8 hPa 0,0 l/m 1,8 km/h (1 Bft) N-NO 22 8,0 C 16,2 C 2,3 km/h (1 Bft)
06.06.2013 21:05 15,0 C 63 % 1021,8 hPa 0,0 l/m 2,1 km/h (1 Bft) NO 45 8,0 C 15,2 C 3,1 km/h (1 Bft)
06.06.2013 21:10 14,2 C 65 % 1021,8 hPa 0,0 l/m 2,3 km/h (1 Bft) O 90 7,7 C 14,6 C 2,9 km/h (1 Bft)
06.06.2013 21:15 13,9 C 67 % 1021,8 hPa 0,0 l/m 1,8 km/h (1 Bft) O-NO 67 7,9 C 14,0 C 1,6 km/h (1 Bft)
06.06.2013 21:20 13,9 C 68 % 1021,2 hPa 0,0 l/m 1,8 km/h (1 Bft) O-NO 67 8,1 C 13,7 C 2,4 km/h (1 Bft)
06.06.2013 21:25 13,7 C 68 % 1021,2 hPa 0,0 l/m 1,9 km/h (1 Bft) O 90 7,9 C 13,2 C 1,6 km/h (1 Bft)
06.06.2013 21:30 12,9 C 69 % 1021,2 hPa 0,0 l/m 1,9 km/h (1 Bft) O-SO 112 7,4 C 12,9 C 2,1 km/h (1 Bft)
06.06.2013 21:35 12,4 C 72 % 1021,2 hPa 0,0 l/m 1,1 km/h (1 Bft) O-NO 67 7,5 C 12,4 C 1,8 km/h (1 Bft)
06.06.2013 21:40 12,1 C 72 % 1021,3 hPa 0,0 l/m 0,6 km/h (0 Bft) O 90 7,2 C 12,2 C 1,9 km/h (1 Bft)
06.06.2013 21:45 12,1 C 74 % 1021,3 hPa 0,0 l/m 1,0 km/h (0 Bft) O 90 7,6 C 11,9 C 2,1 km/h (1 Bft)
06.06.2013 21:50 11,9 C 75 % 1021,3 hPa 0,0 l/m 1,6 km/h (1 Bft) O 90 7,6 C 11,7 C 2,1 km/h (1 Bft)
06.06.2013 21:55 11,8 C 77 % 1021,3 hPa 0,0 l/m 2,6 km/h (1 Bft) O-SO 112 7,9 C 11,5 C 4,3 km/h (1 Bft)
06.06.2013 22:00 11,8 C 78 % 1021,5 hPa 0,0 l/m 3,1 km/h (1 Bft) O-SO 112 8,1 C 11,4 C 2,6 km/h (1 Bft)
06.06.2013 22:05 11,5 C 78 % 1021,5 hPa 0,0 l/m 2,7 km/h (1 Bft) O 90 7,8 C 11,2 C 3,2 km/h (1 Bft)
06.06.2013 22:10 11,3 C 79 % 1021,5 hPa 0,0 l/m 2,6 km/h (1 Bft) O-SO 112 7,8 C 11,1 C 2,3 km/h (1 Bft)
06.06.2013 22:15 10,9 C 79 % 1021,5 hPa 0,0 l/m 2,6 km/h (1 Bft) O 90 7,4 C 10,9 C 3,5 km/h (1 Bft)
06.06.2013 22:20 11,1 C 81 % 1021,6 hPa 0,0 l/m 2,6 km/h (1 Bft) O-SO 112 8,0 C 10,8 C 3,5 km/h (1 Bft)
06.06.2013 22:25 11,3 C 81 % 1021,6 hPa 0,0 l/m 3,4 km/h (1 Bft) O 90 8,2 C 10,7 C 4,0 km/h (1 Bft)
06.06.2013 22:30 11,0 C 81 % 1021,6 hPa 0,0 l/m 2,6 km/h (1 Bft) O-SO 112 7,9 C 10,7 C 0,0 km/h (0 Bft)
06.06.2013 22:35 10,5 C 80 % 1021,6 hPa 0,0 l/m 0,8 km/h (0 Bft) O 90 7,2 C 10,4 C 0,0 km/h (0 Bft)
06.06.2013 22:40 10,9 C 82 % 1021,6 hPa 0,0 l/m 0,8 km/h (0 Bft) O 90 7,9 C 10,3 C 3,7 km/h (1 Bft)
06.06.2013 22:45 11,1 C 82 % 1021,6 hPa 0,0 l/m 2,9 km/h (1 Bft) O 90 8,1 C 10,4 C 4,0 km/h (1 Bft)
06.06.2013 22:50 11,1 C 82 % 1021,6 hPa 0,0 l/m 3,5 km/h (1 Bft) O 90 8,1 C 10,4 C 3,9 km/h (1 Bft)
06.06.2013 22:55 10,6 C 80 % 1021,6 hPa 0,0 l/m 1,9 km/h (1 Bft) S-SO 157 7,3 C 10,4 C 0,0 km/h (0 Bft)
06.06.2013 23:00 10,2 C 81 % 1021,6 hPa 0,0 l/m 0,8 km/h (0 Bft) NO 45 7,1 C 10,1 C 0,0 km/h (0 Bft)
06.06.2013 23:05 10,3 C 82 % 1021,6 hPa 0,0 l/m 0,2 km/h (0 Bft) O-NO 67 7,4 C 9,9 C 0,0 km/h (0 Bft)
06.06.2013 23:10 10,1 C 81 % 1021,6 hPa 0,0 l/m 0,0 km/h (0 Bft) NO 45 7,0 C 9,7 C 0,0 km/h (0 Bft)
06.06.2013 23:15 9,7 C 81 % 1021,6 hPa 0,0 l/m 0,0 km/h (0 Bft) NO 45 6,6 C 9,5 C 0,0 km/h (0 Bft)
06.06.2013 23:20 9,6 C 82 % 1021,6 hPa 0,0 l/m 0,0 km/h (0 Bft) NO 45 6,7 C 9,4 C 0,0 km/h (0 Bft)
06.06.2013 23:25 10,0 C 82 % 1021,6 hPa 0,0 l/m 0,3 km/h (0 Bft) W-SW 247 7,1 C 9,4 C 0,0 km/h (0 Bft)
06.06.2013 23:30 9,7 C 82 % 1021,6 hPa 0,0 l/m 0,3 km/h (0 Bft) W-NW 292 6,8 C 9,5 C 0,0 km/h (0 Bft)
06.06.2013 23:35 9,8 C 83 % 1021,6 hPa 0,0 l/m 0,0 km/h (0 Bft) O-SO 112 7,1 C 9,4 C 0,0 km/h (0 Bft)
06.06.2013 23:40 9,5 C 83 % 1021,4 hPa 0,0 l/m 0,0 km/h (0 Bft) NO 45 6,8 C 9,3 C 0,0 km/h (0 Bft)
06.06.2013 23:45 9,6 C 84 % 1021,4 hPa 0,0 l/m 0,0 km/h (0 Bft) O 90 7,0 C 9,1 C 0,0 km/h (0 Bft)
06.06.2013 23:50 9,4 C 84 % 1021,4 hPa 0,0 l/m 0,0 km/h (0 Bft) N-NW 337 6,8 C 9,0 C 0,0 km/h (0 Bft)
06.06.2013 23:55 9,1 C 84 % 1021,4 hPa 0,0 l/m 0,0 km/h (0 Bft) O 90 6,5 C 8,8 C 0,0 km/h (0 Bft)
_ Min-Zeit 05:10 14:30 05:35 - 23:55 - - 05:10 05:25 23:55
Minimum _ 4,3 C 37 % 1019,6 hPa - 0,0 km/h (0 Bft) - - 3,1 C 4,3 C 0,0 km/h (0 Bft)
_ Max-Zeit 14:25 05:55 14:15 23:55 14:15 - - 08:25 17:30 16:00
Maximum _ 24,4 C 93 % 1023,6 hPa 0,0 l/m 6,0 km/h
N-NW (2 Bft)
- - 12,2 C 26,9 C 13,4 km/h
W (3 Bft)
Durchschnitt _ 15,4 C 63 % 1021,6 hPa #0,0 l/m 2,1 km/h (1 Bft) W-NW - 7,5 C 16,6 C 2,7 km/h (1 Bft)